EW4883 Weather Reports


time (UTC)temp
C
wind
direction
speed
KPH
gust
KPH
rain 1hr
cm
rain 24hr
cm
rain mn
cm
humidity
%
barometer
mb
20260506045051 17 274 0.0 3.2 0.00 0.74 0.38 53 1014.1
20260506044559 17 274 0.0 4.8 0.00 0.74 0.38 52 1014.0
20260506044052 17 0 0.0 4.8 0.00 0.74 0.38 51 1014.0
20260506043553 17 0 1.6 11.3 0.00 0.74 0.38 50 1013.9
20260506043053 17 0 1.6 11.3 0.00 0.74 0.38 50 1014.0
20260506042553 17 267 1.6 14.5 0.00 0.74 0.38 50 1014.0
20260506042052 18 266 3.2 14.5 0.00 0.74 0.38 49 1013.9
20260506041605 18 285 4.8 17.7 0.00 0.74 0.38 48 1013.8
20260506041052 18 261 8.0 17.7 0.00 0.74 0.38 47 1013.7
20260506040550 18 252 4.8 14.5 0.00 0.74 0.38 47 1013.5
20260506040100 18 235 6.4 14.5 0.00 0.74 0.38 47 1013.3
20260506035552 18 239 6.4 20.9 0.00 0.76 0.38 46 1013.2
20260506035052 18 221 6.4 20.9 0.00 0.76 0.38 46 1013.1
20260506034556 18 225 6.4 22.5 0.00 0.76 0.38 46 1013.0
20260506034050 18 230 6.4 22.5 0.00 0.76 0.38 45 1013.0
20260506033554 18 220 9.7 22.5 0.00 0.76 0.38 45 1013.0
20260506033110 18 230 6.4 16.1 0.00 0.76 0.38 45 1013.0
20260506032552 18 232 6.4 16.1 0.00 0.76 0.38 44 1013.0
20260506032126 18 221 6.4 20.9 0.00 0.76 0.38 43 1012.8
20260506031557 19 215 8.0 22.5 0.00 0.76 0.38 42 1012.7
20260506031056 19 227 9.7 22.5 0.00 0.76 0.38 41 1012.7
20260506030557 19 237 8.0 17.7 0.00 0.76 0.38 40 1012.7
20260506030055 19 229 8.0 22.5 0.00 0.76 0.38 37 1012.5
20260506025552 19 247 11.3 22.5 0.00 0.79 0.38 36 1012.4
20260506025052 19 234 9.7 20.9 0.00 0.79 0.38 36 1012.4
20260506024552 19 226 8.0 17.7 0.00 0.79 0.38 36 1012.4
20260506024052 19 223 6.4 20.9 0.00 0.79 0.38 36 1012.2
20260506023554 19 246 9.7 24.1 0.00 0.79 0.38 35 1012.1
20260506023052 20 239 9.7 24.1 0.00 0.79 0.38 35 1012.0
20260506022552 20 245 14.5 24.1 0.00 0.79 0.38 34 1011.9
20260506022049 20 234 9.7 22.5 0.00 0.79 0.38 33 1011.8
20260506021554 20 238 9.7 24.1 0.00 0.79 0.38 32 1011.6
20260506021049 20 221 14.5 24.1 0.00 0.79 0.38 31 1011.5
20260506020549 20 246 11.3 25.7 0.00 0.79 0.38 32 1011.4
20260506020052 20 232 12.9 25.7 0.00 0.79 0.38 31 1011.4
20260506015556 20 244 14.5 27.4 0.00 0.86 0.38 31 1011.3
20260506015053 20 217 12.9 27.4 0.00 0.86 0.38 30 1011.3
20260506014555 20 253 11.3 29.0 0.00 0.86 0.38 29 1011.3
20260506014051 21 257 14.5 29.0 0.00 0.86 0.38 30 1011.2
20260506013549 21 219 14.5 30.6 0.00 0.86 0.38 30 1011.3
20260506013055 21 239 14.5 30.6 0.00 0.86 0.38 30 1011.3
20260506012553 21 246 16.1 30.6 0.00 0.86 0.38 30 1011.2
20260506012052 21 244 17.7 30.6 0.00 0.86 0.38 31 1011.3
20260506011553 21 254 11.3 33.8 0.00 0.86 0.38 32 1011.3
20260506011052 21 215 14.5 33.8 0.00 0.86 0.38 32 1011.2
20260506010555 21 263 14.5 27.4 0.00 0.86 0.38 33 1011.2
20260506010055 21 237 14.5 25.7 0.00 0.86 0.38 33 1011.1
20260506005552 21 275 12.9 30.6 0.00 0.89 0.38 32 1011.1
20260506005052 22 262 16.1 30.6 0.00 0.89 0.38 31 1011.1
20260506004557 22 238 14.5 30.6 0.00 0.89 0.38 31 1011.1
20260506004052 22 231 11.3 25.7 0.00 0.89 0.38 31 1010.9
20260506003553 21 230 12.9 25.7 0.00 0.89 0.38 31 1010.9
20260506003053 22 252 9.7 32.2 0.00 0.89 0.38 30 1010.9
20260506002553 22 235 14.5 32.2 0.00 0.89 0.38 29 1010.9
20260506002053 22 236 19.3 32.2 0.00 0.89 0.38 28 1010.8
20260506001609 22 269 8.0 30.6 0.00 0.89 0.38 28 1010.8
20260506001053 22 269 9.7 30.6 0.00 0.89 0.38 29 1010.8
20260506000553 22 217 17.7 30.6 0.00 0.89 0.38 27 1010.8
20260505235552 23 249 1.6 16.1 0.00 0.89 0.38 27 1010.6
20260505235052 23 202 4.8 24.1 0.00 0.89 0.38 28 1010.6
20260505234600 23 230 6.4 24.1 0.00 0.89 0.38 29 1010.6
20260505234056 23 234 3.2 24.1 0.00 0.89 0.38 28 1010.6
20260505233551 23 273 8.0 20.9 0.00 0.89 0.38 26 1010.3
20260505233101 23 213 3.2 25.7 0.00 0.89 0.38 26 1010.4
20260505232552 23 161 8.0 25.7 0.00 0.89 0.38 26 1010.4
20260505232053 24 243 6.4 19.3 0.00 0.89 0.38 25 1010.3
20260505231602 24 0 4.8 19.3 0.00 0.89 0.38 25 1010.3
20260505231051 23 188 3.2 19.3 0.00 0.89 0.38 26 1010.1
20260505230552 23 0 3.2 19.3 0.00 0.89 0.38 28 1010.4
20260505230117 23 220 6.4 17.7 0.00 0.89 0.38 27 1010.4
20260505225553 23 198 3.2 14.5 0.00 0.89 0.38 27 1010.6
20260505225055 23 122 6.4 19.3 0.00 0.89 0.38 26 1010.6
20260505224559 23 198 1.6 25.7 0.00 0.89 0.38 25 1010.6
20260505224053 23 243 8.0 25.7 0.00 0.89 0.38 26 1010.7
20260505223552 24 223 3.2 19.3 0.00 0.89 0.38 26 1010.5
20260505223100 23 184 3.2 19.3 0.00 0.89 0.38 29 1010.7
20260505222552 23 232 9.7 19.3 0.00 0.89 0.38 29 1010.8
20260505222053 23 277 9.7 19.3 0.00 0.89 0.38 30 1010.8
20260505221555 23 248 8.0 19.3 0.00 0.89 0.38 32 1010.8
20260505221052 22 229 4.8 17.7 0.00 0.89 0.38 33 1010.9
20260505220550 22 277 8.0 17.7 0.00 0.89 0.38 32 1010.9
20260505220055 22 219 3.2 17.7 0.00 0.89 0.38 32 1011.1
20260505215549 22 201 3.2 19.3 0.00 0.89 0.38 32 1011.1
20260505215053 23 186 8.0 20.9 0.00 0.89 0.38 31 1011.1
20260505214605 23 352 11.3 20.9 0.00 0.89 0.38 31 1011.2
20260505214050 22 230 6.4 30.6 0.00 0.89 0.38 31 1011.2
20260505213552 23 226 9.7 30.6 0.00 0.89 0.38 31 1011.4
20260505213059 23 161 4.8 20.9 0.00 0.89 0.38 32 1011.5
20260505212552 23 0 8.0 17.7 0.00 0.89 0.38 35 1011.4
20260505212052 22 225 4.8 19.3 0.00 0.89 0.38 33 1011.5
20260505211607 22 217 9.7 20.9 0.00 0.89 0.38 34 1011.5
20260505211052 22 242 4.8 20.9 0.00 0.89 0.38 37 1011.5
20260505210552 22 261 9.7 25.7 0.00 0.89 0.38 39 1011.5
20260505210104 22 319 8.0 25.7 0.00 0.89 0.38 35 1011.5
20260505205552 22 227 6.4 19.3 0.00 0.89 0.38 32 1011.5
20260505205052 23 161 9.7 19.3 0.00 0.89 0.38 32 1011.6
20260505204558 23 136 6.4 16.1 0.00 0.89 0.38 32 1011.6
20260505204053 23 223 4.8 20.9 0.00 0.89 0.38 31 1011.6
20260505203553 23 219 4.8 20.9 0.00 0.89 0.38 33 1011.7
20260505203054 23 236 4.8 14.5 0.00 0.89 0.38 31 1011.7
20260505202553 23 217 1.6 24.1 0.00 0.89 0.38 32 1011.6
20260505202054 23 223 8.0 24.1 0.00 0.89 0.38 33 1011.8
20260505201605 23 227 9.7 25.7 0.00 0.89 0.38 33 1011.7
20260505201053 23 170 8.0 25.7 0.03 0.89 0.38 34 1011.7
20260505200553 23 178 9.7 22.5 0.03 0.89 0.38 33 1011.7
20260505200052 23 0 3.2 27.4 0.03 0.89 0.38 34 1011.7
20260505195553 23 268 6.4 27.4 0.03 0.89 0.38 35 1011.7
20260505195054 22 228 9.7 29.0 0.03 0.89 0.38 36 1011.8
20260505194554 22 236 14.5 29.0 0.03 0.89 0.38 36 1012.0
20260505194053 22 223 11.3 27.4 0.03 0.89 0.38 37 1012.0
20260505193552 22 181 6.4 27.4 0.03 0.89 0.38 37 1011.9
20260505193052 22 217 9.7 20.9 0.03 0.89 0.38 39 1012.0
20260505192556 22 201 3.2 32.2 0.03 0.89 0.38 40 1012.0
20260505192053 22 229 12.9 32.2 0.03 0.89 0.38 39 1012.2
20260505191558 22 223 8.0 33.8 0.03 0.89 0.38 41 1012.2
20260505191053 22 161 8.0 33.8 0.00 0.86 0.36 42 1012.0
20260505190556 22 219 8.0 29.0 0.00 0.86 0.36 43 1012.1
20260505190112 22 0 9.7 29.0 0.00 0.86 0.36 46 1012.2
20260505185552 22 237 6.4 29.0 0.00 0.86 0.36 45 1012.1
20260505185052 21 230 9.7 19.3 0.00 0.86 0.36 47 1012.2
20260505184605 21 228 8.0 22.5 0.00 0.86 0.36 48 1012.4
20260505184053 21 294 9.7 22.5 0.00 0.86 0.36 49 1012.4
20260505183552 21 236 3.2 14.5 0.00 0.86 0.36 52 1012.5
20260505183054 21 242 3.2 14.5 0.00 0.86 0.36 55 1012.7
20260505182552 20 0 4.8 14.5 0.00 0.86 0.36 53 1012.7
20260505182056 20 0 4.8 12.9 0.00 0.86 0.36 55 1012.8
20260505181552 20 0 1.6 16.1 0.00 0.86 0.36 55 1012.8
20260505181055 19 198 6.4 17.7 0.00 0.86 0.36 58 1013.0
20260505180552 19 230 6.4 19.3 0.00 0.86 0.36 56 1012.9
20260505180053 19 219 8.0 19.3 0.00 0.86 0.36 58 1013.1
20260505175552 20 227 4.8 12.9 0.00 0.86 0.36 57 1013.1
20260505175053 19 214 1.6 8.0 0.00 0.86 0.36 58 1013.2
20260505174553 18 0 0.0 11.3 0.00 0.86 0.36 60 1013.2
20260505174053 18 219 4.8 11.3 0.00 0.86 0.36 58 1013.2
20260505173553 18 0 3.2 11.3 0.00 0.86 0.36 58 1013.2
20260505173053 18 138 1.6 16.1 0.00 0.86 0.36 61 1013.2
20260505172552 18 123 6.4 16.1 0.00 0.86 0.36 61 1013.4
20260505172053 18 0 1.6 8.0 0.00 0.86 0.36 63 1013.3
20260505171556 17 32 0.0 4.8 0.00 0.86 0.36 66 1013.2
20260505171057 17 51 0.0 4.8 0.00 0.86 0.36 65 1013.1
20260505170559 17 51 0.0 6.4 0.00 0.86 0.36 65 1013.2
20260505170103 17 0 3.2 8.0 0.00 0.86 0.36 65 1013.2
20260505165552 17 51 1.6 8.0 0.00 0.86 0.36 68 1013.1
20260505165052 17 51 1.6 8.0 0.00 0.86 0.36 67 1013.2
20260505164554 17 55 1.6 8.0 0.00 0.86 0.36 69 1013.2
20260505164052 17 0 0.0 9.7 0.00 0.86 0.36 71 1013.2
20260505163555 17 0 3.2 11.3 0.00 0.86 0.36 70 1013.1
20260505163102 17 54 4.8 11.3 0.00 0.86 0.36 70 1013.1
20260505162553 17 67 1.6 6.4 0.00 0.86 0.36 70 1013.0
20260505162053 17 68 0.0 6.4 0.00 0.86 0.36 72 1013.1
20260505161556 17 68 1.6 6.4 0.00 0.86 0.36 71 1013.2
20260505161053 17 69 1.6 6.4 0.00 0.86 0.36 72 1013.2
20260505160552 17 0 0.0 4.8 0.00 0.86 0.36 73 1013.2
20260505160103 16 0 0.0 4.8 0.00 0.86 0.36 72 1013.2
20260505153108 16 0 1.6 4.8 0.00 0.86 0.36 74 1013.0
20260505152551 16 0 0.0 3.2 0.00 0.86 0.36 78 1013.0
20260505152051 16 0 0.0 1.6 0.00 0.86 0.36 77 1013.0
20260505151555 16 0 0.0 1.6 0.00 0.86 0.36 79 1013.0
20260505151053 16 0 0.0 3.2 0.00 0.86 0.36 81 1013.1
20260505150553 15 150 0.0 3.2 0.00 0.86 0.36 83 1013.1
20260505150115 15 0 0.0 4.8 0.00 0.86 0.36 83 1013.1
20260505140552 15 0 0.0 1.6 0.00 0.86 0.36 88 1013.0
20260505140112 15 0 0.0 1.6 0.00 0.86 0.36 88 1012.9
20260505124559 13 0 0.0 0.0 0.00 0.86 0.36 89 1012.1
20260505124053 13 0 0.0 0.0 0.00 0.86 0.36 89 1012.0
20260505123556 13 0 0.0 4.8 0.00 0.86 0.36 89 1011.8
20260505123110 13 0 0.0 4.8 0.00 0.86 0.36 89 1011.8
20260505122555 13 130 0.0 3.2 0.00 0.86 0.36 89 1011.8
20260505122053 13 0 0.0 1.6 0.00 0.86 0.36 89 1011.8
20260505121553 13 0 0.0 3.2 0.00 0.86 0.36 90 1011.8
20260505121053 13 0 0.0 3.2 0.00 0.86 0.36 90 1011.9
20260505120553 13 0 0.0 6.4 0.00 0.86 0.36 90 1011.8
20260505120055 13 0 0.0 6.4 0.00 0.86 0.36 90 1011.8
20260505115552 14 130 0.0 6.4 0.00 0.86 0.36 90 1011.4
20260505115052 14 130 0.0 11.3 0.03 0.86 0.36 90 1011.8
20260505114600 14 130 3.2 11.3 0.03 0.86 0.36 90 1011.6
20260505114054 14 135 4.8 11.3 0.03 0.86 0.36 90 1011.6
20260505113557 14 115 4.8 11.3 0.03 0.86 0.36 91 1011.4
20260505113056 14 0 3.2 11.3 0.03 0.86 0.36 91 1011.5
20260505112553 14 101 3.2 11.3 0.03 0.86 0.36 91 1011.6
20260505112053 14 105 0.0 6.4 0.03 0.86 0.36 91 1012.0
20260505111559 14 105 1.6 9.7 0.03 0.86 0.36 91 1011.9
20260505111053 14 105 1.6 9.7 0.03 0.86 0.36 91 1011.9
20260505110553 14 105 3.2 9.7 0.05 0.86 0.36 91 1011.8
20260505102052 13 103 4.8 11.3 0.03 0.84 0.33 90 1012.2
20260505101553 13 104 3.2 9.7 0.05 0.84 0.33 90 1012.3
20260505101052 13 105 1.6 6.4 0.05 0.84 0.33 90 1012.8
20260505100552 13 107 1.6 6.4 0.03 0.81 0.30 90 1013.1
20260505100100 13 111 1.6 9.7 0.03 0.81 0.30 90 1013.2
20260505095552 14 114 1.6 12.9 0.03 0.81 0.30 90 1013.2
20260505095054 14 108 3.2 16.1 0.05 0.81 0.30 90 1013.0
20260505094552 14 121 4.8 16.1 0.05 0.81 0.30 90 1013.0
20260505094053 14 97 8.0 16.1 0.05 0.81 0.30 90 1013.1
20260505093555 14 127 6.4 16.1 0.05 0.81 0.30 90 1013.1
20260505093056 14 113 8.0 16.1 0.05 0.81 0.30 90 1013.0
20260505092557 14 85 6.4 16.1 0.05 0.81 0.30 90 1013.2
20260505092053 14 117 3.2 17.7 0.08 0.81 0.30 90 1013.4
20260505091551 14 116 4.8 22.5 0.08 0.79 0.28 90 1013.5
20260505091052 14 94 8.0 22.5 0.08 0.79 0.28 90 1013.4
20260505090552 14 119 8.0 17.7 0.10 0.79 0.28 90 1013.5
20260505090106 14 84 8.0 22.5 0.10 0.79 0.28 90 1013.4
20260505085553 14 113 9.7 22.5 0.13 0.79 0.28 90 1013.2
20260505085055 14 123 12.9 22.5 0.10 0.76 0.25 90 1013.3
20260505084555 14 123 8.0 17.7 0.10 0.76 0.25 90 1013.6
20260505084053 14 132 8.0 17.7 0.13 0.76 0.25 90 1013.7
20260505083553 14 116 6.4 14.5 0.15 0.76 0.25 90 1013.6
20260505083109 14 107 6.4 14.5 0.18 0.76 0.25 90 1013.8
20260505082553 14 77 3.2 8.0 0.20 0.76 0.25 90 1014.0
20260505082053 14 128 3.2 8.0 0.18 0.74 0.23 90 1014.4
20260505081554 14 129 3.2 11.3 0.18 0.71 0.20 90 1014.7
20260505081052 14 130 3.2 11.3 0.20 0.71 0.20 89 1014.8
20260505080552 14 108 3.2 11.3 0.18 0.69 0.18 89 1014.8
20260505080057 14 93 3.2 11.3 0.18 0.69 0.18 89 1014.9
20260505075552 14 106 3.2 14.5 0.15 0.66 0.15 89 1015.0
20260505075052 14 126 4.8 14.5 0.18 0.66 0.15 89 1015.0
20260505074559 14 116 4.8 14.5 0.18 0.66 0.15 89 1015.1
20260505074054 14 113 3.2 11.3 0.18 0.64 0.13 89 1015.2
20260505073552 14 125 4.8 11.3 0.15 0.61 0.10 89 1015.3
20260505073059 14 105 1.6 11.3 0.15 0.58 0.08 89 1015.3
20260505072550 14 110 3.2 11.3 0.13 0.56 0.05 89 1015.4
20260505072053 14 117 1.6 6.4 0.15 0.56 0.05 89 1015.4
20260505071558 14 117 1.6 9.7 0.13 0.53 0.03 88 1015.3
20260505071053 14 117 1.6 11.3 0.13 0.51 0.00 88 1015.3
20260505070553 14 119 1.6 11.3 0.15 0.51 0.00 88 1015.2
20260505070056 14 113 1.6 9.7 0.15 0.51 0.00 88 1015.2
20260505065553 14 0 1.6 9.7 0.15 0.51 0.51 88 1015.1
20260505065052 14 0 3.2 9.7 0.13 0.48 0.48 87 1015.1
20260505064556 14 0 1.6 11.3 0.13 0.48 0.48 87 1015.1
20260505064053 14 113 4.8 11.3 0.10 0.46 0.46 87 1015.4
20260505063552 14 138 0.0 8.0 0.13 0.46 0.46 87 1015.3
20260505063054 15 145 0.0 4.8 0.10 0.43 0.43 87 1015.2
20260505062553 15 0 0.0 4.8 0.13 0.43 0.43 86 1015.2
20260505062052 15 231 1.6 4.8 0.13 0.41 0.41 85 1015.0
20260505061550 15 0 1.6 4.8 0.13 0.41 0.41 84 1015.1
20260505061052 15 0 0.0 3.2 0.13 0.38 0.38 83 1015.0
20260505060552 15 0 0.0 3.2 0.10 0.36 0.36 82 1014.9
20260505060053 15 0 0.0 9.7 0.10 0.36 0.36 80 1014.9
20260505055553 15 0 0.0 9.7 0.10 0.36 0.36 79 1014.9
20260505055055 15 229 1.6 11.3 0.10 0.36 0.36 79 1014.8
20260505054552 15 0 4.8 11.3 0.13 0.36 0.36 79 1014.8
20260505054053 15 211 1.6 17.7 0.15 0.36 0.36 80 1014.8
20260505053552 16 213 1.6 19.3 0.13 0.33 0.33 79 1014.8
20260505053056 16 232 6.4 19.3 0.13 0.33 0.33 78 1014.9
20260505052554 16 223 3.2 19.3 0.10 0.30 0.30 78 1015.0
20260505052056 16 223 8.0 19.3 0.08 0.28 0.28 77 1015.0
20260505051551 16 219 6.4 20.9 0.10 0.28 0.28 78 1014.9
20260505051052 15 205 8.0 20.9 0.08 0.25 0.25 80 1014.7
20260505050552 15 219 4.8 20.9 0.08 0.25 0.25 83 1014.6
20260505050129 14 0 3.2 9.7 0.10 0.25 0.25 84 1014.6